User: anonymous   Login
Location: Gro�sch�nbrunn
(49.5760°N, 11.8868°E)
Time: 18:31:18
(UTC+00:00)
Language:

Cosmos 1464 Rocket - Orbit

View from above orbital plane
View from above orbital plane
View from above satellite
View from above satellite

Ground track
Ground track

The orbit data is extracted from the following two-line orbital elements,

1 14085U 83048B   20330.86423616 +.00000022 +00000-0 +69073-5 0  9999
2 14085 082.9458 236.2348 0033071 186.1733 173.9021 13.76295654883401
Epoch (UTC): 25 November 2020 20:44:30
Eccentricity: 0.0033071
inclination: 82.9458°
perigee height: 953 km
apogee height: 1001 km
right ascension of ascending node: 236.2348°
argument of perigee: 186.1733°
revolutions per day: 13.76295654
mean anomaly at epoch: 173.9021°
orbit number at epoch: 88340

The dashed part of the orbit path shows where the satellite is in the earth's shadow,  

DLR